Find Kosmos-2282

NORAD ID: 23168 Int'l Des: 1994-038 Owner: PVO Country: RU operational
HEOCIRCULARGSO

当前视图

正在加载3D地球...

关于 Kosmos-2282

正在加载描述...

即将过境

Passes for default location (London). Set your location on the main map for personalized predictions.

高度历史

Loading altitude history...

两行轨道根数

1 23168U 94038A 26149.75186882 .00000053 00000-0 00000-0 0 9999
2 23168 13.8723 352.8454 0005868 122.0479 227.8815 1.00271791116817
Epoch: May 29, 2026 • Age: 18 hours

当前状态

高度 35808.4 km
速度 3.07 km/s
星下点 -13.79°S, 175.33°W
发射日期 Jul 6, 1994
运行时间 31.8 years
类型 other

技术详情

分类 Payload
质量 2200.00 kg
干质量 2100.00 kg
总质量 2200.00 kg
长度 5.00 m
直径 2.00 m
跨度 10.00 m
形状 Step Cyl + 2 Pan
制造商 NPOL/KOMET
平台类型 Prognoz
阶段状态 In Orbit
所有者/国家 PVO/RU

Most Searched